SPACEBEE-63 (47442 NORAD) Tracking and Keplerian Element Data

This shows tracking and keplerian element data for the satellite.

Feedback or suggestion? Click here.




ElementValue
Catalog47442
NameSPACEBEE-63
Epoch Orbit1258
Epoch Day105.89475392
Epoch Year2021
RAAN168.1234
Inclination97.4993
Eccentricity0.000574
Argument of Perigee338.1169
Mean Anonmoly21.9815
Mean Motion15.11581799
Decay Rate7.58E-06
L11 47442U 21006AF 21105.89475392 .00000758 00000-0 48401-4 0 9997
L22 47442 97.4993 168.1234 0005740 338.1169 21.9815 15.11581799 12585

Live tracking and technical data element details for SPACEBEE-63 (NORAD 47442). SPACEBEE-63 can be tracked NOW for your location showing map with azimuth and elevation plus other details from your city location.

Track the satellite on the map from your city or location and see movement details for azimuth, elevation, latitude, longitude, range, height, and movement on the map or in text.







IsCatalogInMostPopularTable: catalog: 47442, numindb: 16
Update: records affected: 1



GetName: 47442 SPACEBEE-63

Hit Count: updated at: Fri, 16 Apr 2021 11:27:00 GMT